Regional Weather Roundup
Issued by NWS

Home | Current Version | Previous Version | Graphics & Text | Print | Product List | Glossary On
Versions: 1 2 3 4 5 6 7 8 9 10 11 12 13 14 15 16 17 18 19 20 21 22 23 24 25 26 27 28 29 30 31 32 33 34 35 36 37 38 39 40 41 42 43 44 45 46 47 48 49 50
000
ASUS43 KDTX 240010
RWRMI
MICHIGAN HOURLY REGIONAL WEATHER ROUNDUP
NATIONAL WEATHER SERVICE DETROIT/PONTIAC MI
700 PM EST SUN NOV 23 2014

NOTE: "FAIR" INDICATES FEW OR NO CLOUDS BELOW 12,000 FEET WITH NO
SIGNIFICANT WEATHER AND/OR OBSTRUCTION TO VISIBILITY.

MIZ047>049-052>055-059>063-066>070-074>076-081>083-240100-
SOUTHEAST LOWER MICHIGAN

CITY           SKY/WX    TMP DP  RH WIND       PRES   REMARKS
ADRIAN         LGT RAIN  49  46  90 E8        29.54F
6HR MIN TEMP:  49; 6HR MAX TEMP:  56; 6HR PCP:  0.07;

ALMA           RAIN      48  47  98 SE10      29.55F
ANN ARBOR      LGT RAIN  48  43  82 E9        29.56F
BAD AXE        CLOUDY    47  44  89 SE8       29.62F
6HR MIN TEMP:  46; 6HR MAX TEMP:  49;

CARO           CLOUDY    46  45  93 SE8       29.61F
DETROIT CITY   LGT RAIN  51  42  71 SE8       29.59F
6HR MIN TEMP:  50; 6HR MAX TEMP:  55; 6HR PCP: TRACE;

DETROIT        LGT RAIN  51  44  77 E8        29.58F
6HR MIN TEMP:  50; 6HR MAX TEMP:  53; 6HR PCP:  0.01;

FLINT          LGT RAIN  51  47  86 SE12      29.58F
6HR MIN TEMP:  50; 6HR MAX TEMP:  53; 6HR PCP:  0.13;

GROSSE ILE     LGT RAIN  52  45  76 SE13G18   29.56F
HILLSDALE      RAIN      51  50  99 SE8       29.51F
6HR MIN TEMP:  50; 6HR MAX TEMP:  55;

HOWELL         DRIZZLE   47  46  95 E13       29.54F
6HR MIN TEMP:  47; 6HR MAX TEMP:  51;


CITY           SKY/WX    TMP DP  RH WIND       PRES   REMARKS
JACKSON        LGT RAIN  50  48  93 SE9       29.51F
6HR MIN TEMP:  50; 6HR MAX TEMP:  54; 6HR PCP:  0.21;

LAMBERTVILLE   RAIN      50  45  81 E6        29.55F
LANSING        LGT RAIN  50  47  89 SE13      29.52F FOG
6HR MIN TEMP:  50; 6HR MAX TEMP:  51; 6HR PCP:  0.33;

LAPEER         DRIZZLE   47  42  85 SE3       29.60F
MASON          LGT RAIN  49  48  95 SE7       29.52F
MONROE         LGT RAIN  46  43  87 E10       29.54F
MT. CLEMENS    CLOUDY    49  45  85 SE12      29.57F
6HR MIN TEMP:  44; 6HR MAX TEMP:  49;

PONTIAC        LGT RAIN  48  43  82 E7        29.58F
6HR MIN TEMP:  47; 6HR MAX TEMP:  50; 6HR PCP:  0.01;

PORT HOPE        N/A     47  42  83 SE10      29.61F
6HR MIN TEMP:  45; 6HR MAX TEMP:  52;

PORT HURON     CLOUDY    50  43  76 SE10      29.62F
TRI CITIES     RAIN      49  46  90 SE12      29.58F FOG
6HR MIN TEMP:  48; 6HR MAX TEMP:  51; 6HR PCP:  0.18;

TROY           LGT RAIN  50  43  76 NE5       29.61F
SAGINAW HB     LGT RAIN  46  46 100 SE7       29.58F
$$
MIZ043>046-050>051-056>058-064>065-071>073-077>080-240100-
SOUTHWEST LOWER MICHIGAN

CITY           SKY/WX    TMP DP  RH WIND       PRES   REMARKS
BATTLE CREEK   LGT RAIN  52  49  89 SE9       29.48F FOG
6HR MIN TEMP:  51; 6HR MAX TEMP:  53; 6HR PCP:  0.40;

BENTON HARBOR  RAIN      50  50 100 E8        29.42F FOG
6HR MIN TEMP:  50; 6HR MAX TEMP:  53; 6HR PCP:  0.49;

BIG RAPIDS     MIX PCPN  47  47 100 SE8       29.51F
6HR MIN TEMP:  46; 6HR MAX TEMP:  48; 6HR PCP:  0.19;

COLDWATER      LGT RAIN  51  50  95 SE15      29.48F
6HR MIN TEMP:  51; 6HR MAX TEMP:  55;

FREMONT        RAIN      47  47  97 SE7       29.48F
HOLLAND        RAIN      51  49  92 E10       29.46F FOG
6HR MIN TEMP:  50; 6HR MAX TEMP:  53; 6HR PCP:  0.41;

GRAND RAPIDS   RAIN      50  48  93 SE10      29.49F FOG
6HR MIN TEMP:  49; 6HR MAX TEMP:  52; 6HR PCP:  0.37;

IONIA          RAIN      49  49  99 SE10      29.50F
KALAMAZOO      LGT RAIN  51  49  92 SE7       29.47F FOG
6HR MIN TEMP:  50; 6HR MAX TEMP:  53; 6HR PCP:  0.40;

LUDINGTON      RAIN      49  48  96 SE8       29.48F
6HR MIN TEMP:  49; 6HR MAX TEMP:  49; 6HR PCP:  0.21;

MARSHALL       RAIN      49  48  95 SE9G16    29.49F
MOUNT PLEASANT RAIN      47  46  97 SE6       29.54F
6HR MIN TEMP:  47; 6HR MAX TEMP:  51; 6HR PCP:  0.11;

MUSKEGON       LGT RAIN  50  47  89 SE12      29.46F FOG
6HR MIN TEMP:  50; 6HR MAX TEMP:  52; 6HR PCP:  0.27;

SOUTH HAVEN    RAIN      51  50  97 SE9       29.44F
$$
MIZ016>042-240100-
NORTHERN LOWER MICHIGAN

CITY           SKY/WX    TMP DP  RH WIND       PRES   REMARKS
ALPENA         LGT RAIN  43  41  93 E5        29.58F FOG
6HR MIN TEMP:  44; 6HR MAX TEMP:  50; 6HR PCP:  0.02;

BEAVER ISLAND  DRIZZLE   47  46  97 SE9       29.49F
6HR MIN TEMP:  46; 6HR MAX TEMP:  49;

BELLAIRE       MIX PCPN  48  46  91 CALM      29.51F
CADILLAC       LGT RAIN  46  45  97 SE8       29.50F
CHARLEVOIX     DRIZZLE   44  44 100 CALM      29.52F
6HR MIN TEMP:  44; 6HR MAX TEMP:  48;

FRANKFORT      RAIN      48  47  97 SE12      29.47F
GAYLORD        LGT RAIN  43  43 100 S9        29.53F VSB 1/4
6HR MIN TEMP:  42; 6HR MAX TEMP:  45; 6HR PCP:  0.02;

GRAYLING       RAIN      48  48 100 SE8       29.55F
6HR MIN TEMP:  48; 6HR MAX TEMP:  48;

HARBOR SPRINGS LGT RAIN  42  42  99 NE7       29.51F
HOUGHTON LAKE  LGT RAIN  47  45  93 SE9       29.55F FOG
6HR MIN TEMP:  47; 6HR MAX TEMP:  48; 6HR PCP:  0.10;

MANISTEE       CLOUDY    48  45  87 SE7       29.48F
OSCODA         LGT RAIN  45  44  98 S6        29.60F
PELLSTON       LGT RAIN  43  43 100 SE5       29.52F VSB 1/2
6HR MIN TEMP:  40; 6HR MAX TEMP:  48; 6HR PCP:  0.05;

ROGERS CITY    LGT RAIN  47  47 100 S10G18    29.57F
TRAVERSE CITY  LGT RAIN  49  46  90 VRB6      29.49F FOG
6HR MIN TEMP:  49; 6HR MAX TEMP:  52; 6HR PCP:  0.02;

$$
MIZ007>008-015-240100-
EASTERN UPPER MICHIGAN

CITY           SKY/WX    TMP DP  RH WIND       PRES   REMARKS
KINROSS        CLOUDY    41  41 100 SE12      29.53S VSB 1/4
6HR MIN TEMP:  39; 6HR MAX TEMP:  43; 6HR PCP:  0.02;

MACKINAC ISLAN MIX PCPN  46  46 100 SE6       29.52F
6HR MIN TEMP:  45; 6HR MAX TEMP:  47; 6HR PCP:  0.01;

NEWBERRY       LGT RAIN  41  41 100 S8        29.48F
S. S. MARIE    LGT RAIN  40  39  97 E5        29.53F VSB 1/4
6HR MIN TEMP:  40; 6HR MAX TEMP:  43; 6HR PCP:  0.03;

MUNISING         N/A     43  40  89 S8        29.44F
6HR MIN TEMP:  43; 6HR MAX TEMP:  47;

$$
MIZ004>006-011>014-085-240100-
CENTRAL UPPER MICHIGAN

CITY           SKY/WX    TMP DP  RH WIND       PRES   REMARKS
MANISTIQUE     RAIN      41  41 100 SE6       29.47F VSB 3/4
ESCANABA       CLOUDY    43  39  87 SE3       29.44F
6HR MIN TEMP:  43; 6HR MAX TEMP:  43;

MENOMINEE      CLOUDY    43  41  93 S7        29.41F
6HR MIN TEMP:  43; 6HR MAX TEMP:  46;

SAWYER-GWINN   FOG       39  39 100 SE6       29.42F VSB 1/4 WCI  35
$$
MIZ001>003-009>011-084-240100-
WESTERN UPPER MICHIGAN

CITY           SKY/WX    TMP DP  RH WIND       PRES   REMARKS
IRON MOUNTAIN  LGT RAIN  40  39  97 SE3       29.40F VSB 1/4
6HR MIN TEMP:  40; 6HR MAX TEMP:  43; 6HR PCP: TRACE;

HOUGHTON       CLOUDY    43  42  97 SE6       29.37F
6HR MIN TEMP:  41; 6HR MAX TEMP:  45;

COPPER HARBOR    N/A     44  41  89 SW12      29.38F
6HR MIN TEMP:  44; 6HR MAX TEMP:  47;

IRONWOOD       CLOUDY    43  41  93 CALM      29.33S VSB 3/4
6HR MIN TEMP:  43; 6HR MAX TEMP:  46;

$$

ABBREVIATIONS USED IN REMARKS
   TC - TEMPERATURE IN CELSIUS
  WCI - WIND CHILL INDEX
   HX - HEAT INDEX
  VSB - VISIBILITY




USA.gov is the U.S. government's official web portal to all federal, state and local government web resources and services.